Date String (YYYY-MM-DD hh:mm:ss) UTC,Instrument flags,Ambient pressure (hPa),Sample flow (lpm),Bypass flow (lpm),Sample temperature (°C),Ambient temperature (°C),ASC tube jacket temperature (°C),LED temperature (°C),Box temperature (°C),Sample RH (%),Span deviation,Mass concentration (μg/m³),Mass concentration (μg/m³),Mass concentration (μg/m³)
DateTimeUTC,F1_M11,P_M11,Q1_M11,Q2_M11,T1_M11,T2_M11,T3_M11,T4_M11,T5_M11,U1_M11,ZSPAN_M11,X2_M11,X0_M11,X1_M11
2021-09-30 20:00:00,,0834.0,5.00,0.00,27.6,26.9,00.0,36.7,29.4,22.7,-001.2,0009.30,0014.97,0008.45
2021-09-30 20:01:00,,0834.0,4.99,0.00,27.6,26.9,00.0,36.7,29.4,22.3,-001.2,0009.29,0014.70,0008.45
2021-09-30 20:02:00,,0834.0,5.01,0.00,27.6,26.9,00.0,36.7,29.5,22.2,-001.1,0009.23,0014.55,0008.45
2021-09-30 20:03:00,,0834.0,5.00,0.00,27.6,26.9,00.0,36.7,29.4,22.3,-001.0,0009.24,0014.12,0008.45
2021-09-30 20:04:00,,0834.0,4.99,0.00,27.6,26.9,00.0,36.7,29.5,22.2,-001.2,0009.23,0014.00,0008.45
2021-09-30 20:05:00,,0834.0,5.00,0.00,27.7,26.9,00.0,36.7,29.5,22.4,-001.3,0009.22,0014.17,0008.44
2021-09-30 20:06:00,,0834.0,5.00,0.00,27.7,27.0,00.0,36.7,29.5,22.5,-001.6,0009.25,0014.26,0008.46
2021-09-30 20:07:00,,0834.0,5.00,0.00,27.7,27.0,00.0,36.7,29.5,23.2,-001.6,0009.23,0014.17,0008.48
2021-09-30 20:08:00,,0834.0,5.00,0.00,27.7,27.0,00.0,36.7,29.5,22.8,-001.7,0009.20,0014.31,0008.49
2021-09-30 20:09:00,,0834.0,5.00,0.00,27.7,27.0,00.0,36.7,29.5,22.1,-001.8,0009.14,0014.34,0008.50
2021-09-30 20:10:00,,0834.0,5.00,0.00,27.7,27.0,00.0,36.7,29.5,22.4,-001.6,0009.13,0014.61,0008.50
2021-09-30 20:11:00,,0834.0,5.00,0.00,27.7,27.0,00.0,36.7,29.5,22.4,-001.5,0009.16,0014.74,0008.54
2021-09-30 20:12:00,,0834.0,4.99,0.00,27.7,27.0,00.0,36.7,29.5,22.7,-001.6,0009.15,0014.89,0008.55
2021-09-30 20:13:00,,0834.0,5.00,0.00,27.7,27.0,00.0,36.7,29.5,22.6,-001.8,0009.13,0014.91,0008.54
2021-09-30 20:14:00,,0834.0,5.00,0.00,27.7,27.0,00.0,36.7,29.5,22.5,-001.9,0009.12,0014.87,0008.56
2021-09-30 20:15:00,,0833.9,4.99,0.00,27.7,26.9,00.0,36.7,29.5,22.2,-001.9,0009.13,0014.89,0008.57
2021-09-30 20:16:00,,0833.9,5.00,0.00,27.7,26.9,00.0,36.7,29.4,22.6,-001.9,0009.18,0014.89,0008.62
2021-09-30 20:17:00,,0833.9,5.00,0.00,27.6,26.9,00.0,36.7,29.4,22.5,-002.0,0009.24,0015.23,0008.65
2021-09-30 20:18:00,,0833.9,4.99,0.00,27.6,26.9,00.0,36.8,29.4,22.5,-002.1,0009.30,0015.84,0008.68
2021-09-30 20:19:00,,0833.9,5.01,0.00,27.6,26.9,00.0,36.7,29.4,22.3,-002.1,0009.34,0015.74,0008.70
2021-09-30 20:20:00,,0833.9,5.00,0.00,27.6,26.9,00.0,36.7,29.4,22.6,-002.0,0009.39,0015.41,0008.76
2021-09-30 20:21:00,,0833.9,5.00,0.00,27.6,26.9,00.0,36.7,29.4,22.3,-001.9,0009.45,0015.22,0008.80
2021-09-30 20:22:00,,0833.8,5.01,0.00,27.6,26.9,00.0,36.7,29.4,22.3,-002.0,0009.45,0014.96,0008.81
2021-09-30 20:23:00,,0833.8,5.00,0.00,27.6,26.9,00.0,36.7,29.5,22.3,-002.0,0009.46,0014.78,0008.80
2021-09-30 20:24:00,,0833.8,5.00,0.00,27.7,26.9,00.0,36.7,29.5,22.4,-002.0,0009.53,0014.87,0008.83
2021-09-30 20:25:00,,0833.8,5.00,0.00,27.7,27.0,00.0,36.7,29.5,22.6,-001.9,0009.59,0014.96,0008.86
2021-09-30 20:26:00,,0833.8,5.01,0.00,27.7,27.0,00.0,36.7,29.6,23.2,-002.0,0009.60,0014.95,0008.86
2021-09-30 20:27:00,,0833.8,4.99,0.00,27.7,27.0,00.0,36.7,29.5,22.7,-001.9,0009.58,0015.02,0008.84
2021-09-30 20:28:00,,0833.8,5.00,0.00,27.7,27.0,00.0,36.7,29.5,22.3,-001.9,0009.57,0014.95,0008.82
2021-09-30 20:29:00,,0833.8,4.99,0.00,27.7,27.0,00.0,36.8,29.5,22.3,-001.8,0009.47,0014.04,0008.80
2021-09-30 20:30:00,,0833.9,5.00,0.00,27.7,27.0,00.0,36.8,29.5,22.5,-001.9,0009.43,0014.21,0008.78
2021-09-30 20:31:00,,0833.8,5.00,0.00,27.7,27.0,00.0,36.8,29.5,22.4,-001.8,0009.39,0014.64,0008.75
2021-09-30 20:32:00,,0833.8,4.98,0.00,27.7,27.0,00.0,36.8,29.5,22.7,-002.1,0009.39,0014.84,0008.74
2021-09-30 20:33:00,,0833.8,5.01,0.00,27.7,27.0,00.0,36.8,29.5,22.9,-002.1,0009.40,0014.86,0008.75
2021-09-30 20:34:00,,0833.8,5.01,0.00,27.7,27.0,00.0,36.8,29.4,22.6,-002.1,0009.41,0014.86,0008.79
2021-09-30 20:35:00,,0833.7,4.99,0.00,27.6,26.9,00.0,36.8,29.4,22.6,-001.9,0009.43,0014.89,0008.82
2021-09-30 20:36:00,,0833.8,5.00,0.00,27.6,27.0,00.0,36.8,29.4,22.4,-001.8,0009.47,0014.98,0008.85
2021-09-30 20:37:00,,0833.7,5.01,0.00,27.6,26.9,00.0,36.8,29.4,22.4,-001.6,0009.49,0015.11,0008.89
2021-09-30 20:38:00,,0833.7,5.01,0.00,27.6,26.9,00.0,36.7,29.4,22.3,-001.7,0009.52,0015.01,0008.95
2021-09-30 20:39:00,,0833.7,4.98,0.00,27.6,26.9,00.0,36.7,29.4,22.5,-001.7,0009.57,0015.94,0009.00
2021-09-30 20:40:00,,0833.7,5.01,0.00,27.6,26.9,00.0,36.7,29.4,22.8,-002.0,0009.62,0016.16,0009.03
2021-09-30 20:41:00,,0833.7,5.01,0.00,27.6,26.9,00.0,36.7,29.5,22.4,-002.0,0009.67,0016.19,0009.09
2021-09-30 20:42:00,,0833.6,5.00,0.00,27.6,27.0,00.0,36.7,29.5,22.6,-002.1,0009.72,0015.97,0009.14
2021-09-30 20:43:00,,0833.7,4.99,0.00,27.6,27.0,00.0,36.7,29.5,22.5,-002.0,0009.69,0015.64,0009.16
2021-09-30 20:44:00,,0833.7,5.01,0.00,27.6,27.0,00.0,36.7,29.4,22.4,-001.9,0009.69,0015.59,0009.18
2021-09-30 20:45:00,,0833.6,5.00,0.00,27.6,26.9,00.0,36.7,29.4,22.5,-001.9,0009.67,0016.03,0009.18
2021-09-30 20:46:00,,0833.6,4.99,0.00,27.6,26.9,00.0,36.7,29.5,22.7,-002.0,0009.66,0016.25,0009.17
2021-09-30 20:47:00,,0833.6,5.01,0.00,27.7,27.0,00.0,36.7,29.5,22.7,-002.1,0009.63,0016.22,0009.15
2021-09-30 20:48:00,,0833.6,5.00,0.00,27.7,27.0,00.0,36.7,29.5,22.7,-002.2,0009.61,0016.03,0009.14
2021-09-30 20:49:00,,0833.6,4.99,0.00,27.7,27.0,00.0,36.7,29.6,23.2,-002.1,0009.58,0015.92,0009.11
2021-09-30 20:50:00,,0833.6,4.99,0.00,27.7,27.0,00.0,36.7,29.6,22.7,-002.2,0009.56,0015.50,0009.09
2021-09-30 20:51:00,,0833.6,5.00,0.00,27.7,27.1,00.0,36.8,29.6,22.6,-001.9,0009.57,0015.48,0009.08
2021-09-30 20:52:00,,0833.6,5.00,0.00,27.8,27.1,00.0,36.8,29.6,22.8,-001.8,0009.59,0015.49,0009.06
2021-09-30 20:53:00,,0833.6,5.00,0.00,27.8,27.1,00.0,36.8,29.6,22.6,-001.9,0009.56,0015.13,0009.03
2021-09-30 20:54:00,,0833.6,5.00,0.00,27.8,27.1,00.0,36.8,29.6,22.6,-001.8,0009.55,0015.11,0008.99
2021-09-30 20:55:00,,0833.6,5.00,0.00,27.8,27.1,00.0,36.8,29.6,22.9,-001.8,0009.57,0015.16,0008.98
2021-09-30 20:56:00,,0833.6,5.00,0.00,27.8,27.1,00.0,36.8,29.6,22.9,-001.9,0009.61,0014.77,0009.00
2021-09-30 20:57:00,,0833.6,5.01,0.00,27.8,27.1,00.0,36.8,29.6,22.5,-001.8,0009.61,0014.59,0008.99
2021-09-30 20:58:00,,0833.6,5.01,0.00,27.8,27.1,00.0,36.8,29.6,22.6,-001.8,0009.63,0014.67,0008.98
2021-09-30 20:59:00,,0833.6,4.99,0.00,27.8,27.1,00.0,36.8,29.6,22.8,-001.8,0009.64,0014.75,0008.98
